Winchester, VA

12:18 PM EDT on May 26, 2017 (GMT -0400)
Winchester Regional

Weather History for KOKV - February, 2014

Change the Weather History Date:

Friday, February 14, 2014

  Actual Average Record
Temperature  
Mean Temperature 39 °F -  
Max Temperature 48 °F 46 °F 62 °F (1990)
Min Temperature 30 °F 27 °F 8 °F (2016)
Degree Days  
Heating Degree Days 26    
Moisture  
Dew Point 21 °F    
Average Humidity 50    
Maximum Humidity 75    
Minimum Humidity 30    
Precipitation  
Precipitation 0.11 in - - ()
Sea Level Pressure  
Sea Level Pressure 29.58 in    
Wind  
Wind Speed 11 mph (WNW)    
Max Wind Speed 24 mph    
Max Gust Speed 33 mph    
Visibility 10 miles    
Events      
Averages and records for this station are not official NWS values.
T = Trace of Precipitation, MM = Missing Value Source: NWS Daily Summary

Daily Weather History Graph

Daily Weather History Graph

Search for Another Location

Airport or City:

Trip Planner

Search our weather history database for the weather conditions in past years. The results will help you decide how hot, cold, wet, or windy it might be!

Date:

Astronomy

Feb. 14, 2014 Rise Set
Actual Time 7:05 AM EST 5:48 PM EST
Civil Twilight 6:37 AM EST 6:16 PM EST
Nautical Twilight 6:06 AM EST 6:47 PM EST
Astronomical Twilight 5:35 AM EST 7:18 PM EST
Moon 5:50 PM EST (2/14) 6:31 AM EST (2/14)
Length of Visible Light 11h 38m
Length of Day
10h 43m
Full, 100% of the Moon is Illuminated
Feb 14
Full
Feb 14
Full
Feb 22
Last Quarter
Mar 1
New
Mar 8
First Quarter

Hourly Weather History & Observations

Time (EST) Temp. Windchill Dew Point Humidity Pressure Visibility Wind Dir Wind Speed Gust Speed Precip Events Conditions
12:15 AM 33.8 °F 22.2 °F 24.8 °F 70% 29.43 in 10.0 mi WNW 20.7 mph 31.1 mph 0.01 in   Scattered Clouds
12:35 AM 33.8 °F 21.3 °F 23.0 °F 65% 29.43 in 10.0 mi WNW 24.2 mph 33.4 mph 0.01 in   Clear
12:55 AM 33.8 °F 23.2 °F 23.0 °F 65% 29.45 in 10.0 mi West 17.3 mph 32.2 mph 0.01 in   Clear
1:15 AM 33.8 °F 24.3 °F 21.2 °F 60% 29.48 in 10.0 mi West 13.8 mph 21.9 mph N/A   Clear
1:35 AM 33.8 °F 23.9 °F 21.2 °F 60% 29.48 in 10.0 mi West 15.0 mph 26.5 mph N/A   Clear
1:55 AM 33.8 °F 21.9 °F 19.4 °F 56% 29.47 in 10.0 mi WNW 21.9 mph 27.6 mph N/A   Clear
2:15 AM 33.8 °F 24.8 °F 19.4 °F 56% 29.48 in 10.0 mi West 12.7 mph - N/A   Scattered Clouds
2:35 AM 33.8 °F 26.4 °F 19.4 °F 56% 29.49 in 10.0 mi West 9.2 mph - N/A   Mostly Cloudy
2:55 AM 33.8 °F 28.6 °F 19.4 °F 56% 29.49 in 10.0 mi West 5.8 mph - N/A   Scattered Clouds
3:15 AM 33.8 °F 26.4 °F 17.6 °F 52% 29.49 in 10.0 mi West 9.2 mph - N/A   Clear
3:35 AM 33.8 °F 24.8 °F 15.8 °F 48% 29.49 in 10.0 mi West 12.7 mph 21.9 mph N/A   Clear
3:55 AM 33.8 °F 27.7 °F 15.8 °F 48% 29.49 in 10.0 mi West 6.9 mph - N/A   Clear
4:15 AM 33.8 °F 26.4 °F 14.0 °F 44% 29.48 in 10.0 mi WNW 9.2 mph - N/A   Clear
4:35 AM 33.8 °F 26.4 °F 14.0 °F 44% 29.49 in 10.0 mi West 9.2 mph 17.3 mph N/A   Clear
4:55 AM 33.8 °F 25.3 °F 14.0 °F 44% 29.49 in 10.0 mi West 11.5 mph 16.1 mph N/A   Clear
5:15 AM 33.8 °F 27.0 °F 14.0 °F 44% 29.50 in 10.0 mi West 8.1 mph - N/A   Clear
5:35 AM 33.8 °F 30.8 °F 14.0 °F 44% 29.50 in 10.0 mi West 3.5 mph - N/A   Mostly Cloudy
5:55 AM 30.2 °F - 14.0 °F 51% 29.50 in 10.0 mi Calm Calm - N/A   Scattered Clouds
6:15 AM 32.0 °F 25.6 °F 19.4 °F 60% 29.51 in 10.0 mi West 6.9 mph - N/A   Scattered Clouds
6:35 AM 32.0 °F 25.6 °F 19.4 °F 60% 29.52 in 10.0 mi West 6.9 mph - N/A   Scattered Clouds
6:55 AM 37.4 °F 26.6 °F 21.2 °F 52% 29.52 in 10.0 mi West 21.9 mph 26.5 mph N/A   Mostly Cloudy
7:15 AM 37.4 °F 26.9 °F 23.0 °F 56% 29.52 in 10.0 mi West 20.7 mph 32.2 mph N/A   Scattered Clouds
7:35 AM 37.4 °F 28.9 °F 23.0 °F 56% 29.54 in 10.0 mi West 13.8 mph 21.9 mph N/A   Clear
7:55 AM 37.4 °F 28.5 °F 21.2 °F 52% 29.55 in 10.0 mi West 15.0 mph 19.6 mph N/A   Clear
8:15 AM 37.4 °F 29.3 °F 23.0 °F 56% 29.55 in 10.0 mi West 12.7 mph - N/A   Clear
8:35 AM 39.2 °F 33.0 °F 23.0 °F 52% 29.55 in 10.0 mi West 9.2 mph - 0.01 in   Clear
8:55 AM 39.2 °F 33.6 °F 23.0 °F 52% 29.55 in 10.0 mi WSW 8.1 mph - 0.01 in   Clear
9:15 AM 41.0 °F 35.8 °F 23.0 °F 49% 29.55 in 10.0 mi WSW 8.1 mph - N/A   Clear
9:35 AM 41.0 °F 37.1 °F 23.0 °F 49% 29.56 in 10.0 mi South 5.8 mph - 0.01 in   Clear
9:55 AM 42.8 °F 41.1 °F 23.0 °F 46% 29.56 in 10.0 mi SW 3.5 mph - 0.03 in   Clear
10:15 AM 42.8 °F 38.0 °F 23.0 °F 46% 29.57 in 10.0 mi West 8.1 mph - 0.02 in   Clear
10:35 AM 42.8 °F 36.2 °F 23.0 °F 46% 29.57 in 10.0 mi West 12.7 mph 18.4 mph 0.04 in   Clear
10:55 AM 44.6 °F 37.4 °F 21.2 °F 39% 29.57 in 10.0 mi WNW 16.1 mph 21.9 mph 0.05 in   Clear
11:15 AM 44.6 °F 36.6 °F 21.2 °F 39% 29.57 in 10.0 mi WNW 19.6 mph 25.3 mph 0.01 in   Clear
11:35 AM 46.4 °F 39.2 °F 21.2 °F 37% 29.58 in 10.0 mi West 18.4 mph 27.6 mph 0.01 in   Clear
11:55 AM 46.4 °F 39.2 °F 21.2 °F 37% 29.58 in 10.0 mi WNW 18.4 mph 25.3 mph 0.01 in   Clear
12:15 PM 46.4 °F 39.2 °F 19.4 °F 34% 29.57 in 10.0 mi WNW 18.4 mph 29.9 mph N/A   Clear
12:35 PM 46.4 °F 40.1 °F 19.4 °F 34% 29.56 in 10.0 mi West 15.0 mph 19.6 mph N/A   Clear
12:55 PM 46.4 °F 39.8 °F 19.4 °F 34% 29.57 in 10.0 mi WNW 16.1 mph 21.9 mph N/A   Clear
1:15 PM 48.2 °F - 17.6 °F 30% 29.57 in 10.0 mi West 19.6 mph 27.6 mph N/A   Clear
1:35 PM 46.4 °F 41.5 °F 21.2 °F 37% 29.58 in 10.0 mi NW 10.4 mph - N/A   Clear
1:55 PM 46.4 °F 43.5 °F 19.4 °F 34% 29.58 in 10.0 mi NE 5.8 mph 9.2 mph N/A   Clear
2:15 PM 48.2 °F - 21.2 °F 34% 29.58 in 10.0 mi ENE 3.5 mph - N/A   Clear
2:35 PM 48.2 °F - 23.0 °F 37% 29.58 in 10.0 mi ENE 4.6 mph - N/A   Clear
2:55 PM 48.2 °F - 21.2 °F 34% 29.58 in 10.0 mi ENE 4.6 mph - N/A   Clear
3:15 PM 48.2 °F - 21.2 °F 34% 29.59 in 10.0 mi ENE 5.8 mph - N/A   Clear
3:35 PM 46.4 °F 45.2 °F 21.2 °F 37% 29.60 in 10.0 mi North 3.5 mph - N/A   Clear
3:55 PM 48.2 °F - 21.2 °F 34% 29.61 in 10.0 mi NNE 6.9 mph - N/A   Clear
4:15 PM 46.4 °F 44.3 °F 21.2 °F 37% 29.62 in 10.0 mi NE 4.6 mph - N/A   Clear
4:35 PM 46.4 °F 42.9 °F 19.4 °F 34% 29.62 in 10.0 mi North 6.9 mph - N/A   Clear
4:55 PM 46.4 °F 41.1 °F 17.6 °F 32% 29.63 in 10.0 mi NW 11.5 mph - N/A   Clear
5:15 PM 46.4 °F - 19.4 °F 34% 29.64 in 10.0 mi Calm Calm - N/A   Scattered Clouds
5:35 PM 41.0 °F 39.0 °F 23.0 °F 49% 29.66 in 10.0 mi ESE 3.5 mph - N/A   Mostly Cloudy
5:55 PM 42.8 °F 40.1 °F 21.2 °F 42% 29.67 in 10.0 mi SE 4.6 mph - N/A   Mostly Cloudy
6:15 PM 41.0 °F 39.0 °F 23.0 °F 49% 29.67 in 10.0 mi ESE 3.5 mph - N/A   Scattered Clouds
6:35 PM 39.2 °F 37.0 °F 23.0 °F 52% 29.68 in 10.0 mi East 3.5 mph - N/A   Scattered Clouds
6:55 PM 35.6 °F - 23.0 °F 60% 29.69 in 10.0 mi Calm Calm - N/A   Scattered Clouds
7:15 PM 35.6 °F - 23.0 °F 60% 29.69 in 10.0 mi Calm Calm - N/A   Mostly Cloudy
7:35 PM 35.6 °F - 23.0 °F 60% 29.69 in 10.0 mi Calm Calm - N/A   Scattered Clouds
7:55 PM 35.6 °F - 23.0 °F 60% 29.69 in 10.0 mi Calm Calm - N/A   Mostly Cloudy
8:15 PM 35.6 °F - 23.0 °F 60% 29.69 in 10.0 mi Calm Calm - N/A   Mostly Cloudy
8:35 PM 33.8 °F - 26.6 °F 75% 29.69 in 10.0 mi Calm Calm - N/A   Overcast
8:55 PM 33.8 °F - 26.6 °F 75% 29.68 in 10.0 mi Calm Calm - N/A   Overcast
9:15 PM 35.6 °F - 26.6 °F 70% 29.69 in 10.0 mi Calm Calm - N/A   Mostly Cloudy
9:35 PM 35.6 °F - 23.0 °F 60% 29.69 in 10.0 mi Calm Calm - N/A   Mostly Cloudy
9:55 PM 35.6 °F - 24.8 °F 65% 29.68 in 10.0 mi Calm Calm - N/A   Overcast
10:15 PM 35.6 °F 32.8 °F 24.8 °F 65% 29.69 in 10.0 mi NNE 3.5 mph - N/A   Overcast
10:35 PM 35.6 °F 32.8 °F 24.8 °F 65% 29.69 in 10.0 mi NNE 3.5 mph - N/A   Overcast
10:55 PM 35.6 °F - 26.6 °F 70% 29.70 in 10.0 mi Calm Calm - N/A   Overcast
11:15 PM 35.6 °F 32.8 °F 24.8 °F 65% 29.69 in 10.0 mi ENE 3.5 mph - N/A   Overcast
11:35 PM 37.4 °F 32.1 °F 23.0 °F 56% 29.68 in 10.0 mi East 6.9 mph - N/A   Overcast
11:55 PM 35.6 °F - 26.6 °F 70% 29.71 in 10.0 mi Calm Calm - N/A   Overcast